Find Starlink 5191

NORAD ID: 54763 Int'l Des: 2022-175 Owner: SPXS Country: US Constellation: starlink operational
LEOCIRCULAR

リアルタイム位置

3D地球を読み込み中...

Starlink 5191について

説明を読み込み中...

次回通過

Passes for default location (London). Set your location on the main map for personalized predictions.

高度履歴

Loading altitude history...

軌道要素

1 54763U 22175F 26125.30350672 -.00004280 00000-0 -25096-3 0 9995
2 54763 53.2157 150.1185 0000918 76.8707 283.2387 15.08847361188467
Epoch: May 5, 2026 • Age: 28 hours

現在のステータス

高度 556.0 km
速度 7.58 km/s
衛星直下点 -46.22°S, 55.34°E
打ち上げ日 Dec 17, 2022
運用期間 3.3 years
タイプ internet

技術仕様

分類 Payload
質量 305.00 kg
乾燥質量 290.00 kg
総質量 305.00 kg
長さ 0.20 m
直径 2.80 m
スパン 9.00 m
形状 Box + pan
製造者 SPXS
バスタイプ Starlink
フェーズステータス In Orbit
所有者/国 SPXS/US

Most Searched